sat.trackr.live / text

‹ back to catalog

UNKNOWN

NORAD 87237

UNKNOWN UNKNOWN UNKNOWN

§ Identity

Operator
Country
Launch date
Launch site
Launch vehicle
Mass (kg)
RCS (m²)

External: N2YO · Heavens-Above

§ Orbital elements

Epoch: 2026-05-23T03:08:23.960832Z

Period
103.46 min
Inclination
99.2314°
Eccentricity
0.0103011
Mean motion
13.91899912 rev/d
Perigee alt
846.8 km
Apogee alt
997.2 km
Semi-major
7,300.1 km
B*
1.9161e-4
RAAN
203.0830°
Arg perigee
207.0314°
Mean anomaly
181.5229°
Rev number
63,421

§ Raw data

UNKNOWN1 87237U          26143.13083288  .00000210  00000+0  19161-3 0  99992 87237  99.2314 203.0830 0103011 207.0314 181.5229 13.91899912634212

JSON: /api/v1/satellites/87237 · /tle

For live sub-satellite position, see the globe view (requires WebGL).

§ Visibility from observer

Set your observer location to see the next 7 days of passes ≥ 10°. The values pass through the URL so the page stays shareable.

No JS? Fill the form by hand. The geolocation button needs JavaScript.